Weather History for KVPC - February, 2013

Change the Weather History Date:

Wednesday, February 20, 2013

  Actual Average Record
Temperature  
Mean Temperature 38 °F 46 °F  
Max Temperature 48 °F 57 °F 73 °F (2014)
Min Temperature 28 °F 34 °F 14 °F (2015)
Degree Days  
Heating Degree Days 27 19  
Month to date heating degree days 425  
Since 1 July heating degree days 2466  
Moisture  
Dew Point 15 °F    
Average Humidity 39    
Maximum Humidity 72    
Minimum Humidity 17    
Precipitation  
Precipitation 0.00 in 0.21 in 1.94 in (1991)
Month to date precipitation 3.38  
Year to date precipitation 7.98  
Sea Level Pressure  
Sea Level Pressure 30.19 in    
Wind  
Wind Speed 3 mph (North)    
Max Wind Speed 10 mph    
Max Gust Speed 17 mph    
Visibility 10 miles    
Events      
T = Trace of Precipitation, MM = Missing Value Source: NWS Daily Summary

Daily Weather History Graph

Daily Weather History Graph

Search for Another Location

Airport or City:

Trip Planner

Search our weather history database for the weather conditions in past years. The results will help you decide how hot, cold, wet, or windy it might be!

Date:

Astronomy

Feb. 20, 2013 Rise Set
Actual Time 7:18 AM EST 6:28 PM EST
Civil Twilight 6:53 AM EST 6:53 PM EST
Nautical Twilight 6:23 AM EST 7:22 PM EST
Astronomical Twilight 5:54 AM EST 7:51 PM EST
Moon 1:56 PM EST (2/20) 3:30 AM EST (2/20)
Length of Visible Light 12h 00m
Length of Day
11h 09m
Waxing Gibbous, 76% of the Moon is Illuminated
Feb 20
Waxing Gibbous
Feb 25
Full
Mar 4
Last Quarter
Mar 11
New
Mar 19
First Quarter

Hourly Weather History & Observations

Time (EST) Temp. Windchill Dew Point Humidity Pressure Visibility Wind Dir Wind Speed Gust Speed Precip Events Conditions
12:53 AM 36.0 °F - 19.0 °F 50% 30.19 in - North - - N/A   Unknown
1:53 AM - - - N/A% 30.21 in - North - - N/A   Unknown
2:53 AM - - - N/A% 30.21 in - North - - N/A   Unknown
3:53 AM - - - N/A% 30.18 in - North - - N/A   Unknown
4:53 AM 28.9 °F - 21.0 °F 72% 30.17 in - Calm Calm - N/A   Clear
5:53 AM 28.9 °F - 19.9 °F 69% 30.18 in - Calm Calm - N/A   Clear
7:53 AM 30.0 °F - 21.0 °F 69% 30.22 in - Calm Calm - N/A   Clear
8:53 AM 35.1 °F - 19.9 °F 54% 30.23 in - Calm Calm - N/A   Clear
9:53 AM 39.9 °F 34.5 °F 17.1 °F 40% 30.25 in - NNW 8.1 mph - N/A   Clear
10:53 AM 43.0 °F - 12.0 °F 28% 30.22 in 10.0 mi Calm Calm - N/A   Clear
11:53 AM 46.0 °F 42.5 °F 12.9 °F 26% 30.22 in 10.0 mi NNW 6.9 mph - N/A   Clear
12:53 PM 46.9 °F - 12.9 °F 25% 30.20 in 10.0 mi Variable 6.9 mph - N/A   Clear
1:53 PM 48.9 °F - 5.0 °F 17% 30.18 in 10.0 mi North 10.4 mph 17.3 mph N/A   Clear
2:53 PM 48.0 °F - 10.9 °F 22% 30.18 in 10.0 mi NNW 6.9 mph - N/A   Clear
3:53 PM 46.0 °F 42.5 °F 9.0 °F 22% 30.20 in 10.0 mi NNW 6.9 mph - N/A   Overcast
4:53 PM 46.0 °F - 10.9 °F 24% 30.23 in 10.0 mi Calm Calm - N/A   Overcast
5:53 PM 43.0 °F 39.5 °F 18.0 °F 37% 30.16 in 10.0 mi NNE 5.8 mph - 0.00 in   Partly Cloudy
6:53 PM 42.1 °F 37.7 °F 16.0 °F 35% 30.15 in 10.0 mi North 6.9 mph - N/A   Partly Cloudy
8:53 PM 37.9 °F 35.5 °F 14.0 °F 38% 30.16 in 10.0 mi North 3.5 mph - N/A   Clear
9:53 PM 39.0 °F - 15.1 °F 38% 30.17 in 10.0 mi Calm Calm - N/A   Mostly Cloudy
10:53 PM 37.9 °F 35.5 °F 15.1 °F 39% 30.17 in 10.0 mi Variable 3.5 mph - N/A   Overcast
11:53 PM 37.9 °F - 17.1 °F 43% 30.16 in 10.0 mi Calm Calm - N/A   Overcast